Regional Weather Roundup
Issued by NWS New Orleans/Baton Rouge, LA

Home | Current Version | Previous Version | Graphics & Text | Print | Product List | Glossary On
Versions: 1 2 3 4 5 6 7 8 9 10 11 12 13 14 15 16 17 18 19 20 21 22 23 24 25 26 27 28 29 30 31 32 33 34 35 36 37 38 39 40 41 42 43 44 45 46 47 48 49 50
557
ASUS44 KLIX 161701
RWRLIX
NEW ORLEANS REGIONAL WEATHER ROUNDUP
NATIONAL WEATHER SERVICE NEW ORLEANS LA
1200 PM CDT WED APR 16 2014

NOTE: "FAIR" INDICATES FEW OR NO CLOUDS BELOW 12,000 FEET WITH NO
      SIGNIFICANT WEATHER AND/OR OBSTRUCTIONS TO VISIBILITY.
      SKY/WX - SKY CONDITION AND SIGNIFICANT WEATHER.
      TMP - AIR TEMPERATURE.     DP    - DEWPOINT TEMPERATURE.
      RH  - RELATIVE HUMIDITY.   PRES  - PRESSURE.
      HI  - HEAT INDEX.          WCI   - WIND CHILL INDEX.

*  THESE STATIONS ARE NOT NWS OR FAA STATIONS AND ARE NOT UNDER
   NWS QUALITY CONTROL.

LAZ038-040-048-061>063-065>067-069-161800-
SOUTHEAST LOUISIANA

CITY           SKY/WX    TMP DP  RH WIND       PRES   REMARKS
N.O. AUDUBON   NOT AVBL
N.O. INTL ARPT MOSUNNY   59  40  49 SE7       30.23F
N.O. LAKEFRONT SUNNY     57  41  55 E12       30.24F
N.O. DOWNTOWN* PTSUNNY   59  37  44 S7        30.23F
SLIDELL        SUNNY     58  32  37 MISG      30.23F
BATON ROUGE    SUNNY     58  34  40 VRB5      30.24F
BOOTHVILLE     MOSUNNY   59  45  59 NE9       30.22F
BELLE CHASSE   MOSUNNY   60  40  47 E12       30.22F
BOGALUSA*        N/A     57  30  35 S3        30.26F
GALLIANO*      NOT AVBL
NEW ROADS*     NOT AVBL
GONZALES*        N/A     58  36  43 SE5       30.23F
HAMMOND*       NOT AVBL
HOUMA*         MOSUNNY   63  41  45 NE7       30.22F
PORT FOURCHON* PTSUNNY   61  45  55 NE9G16    30.22F

$$

MSZ070-080>082-161800-
SOUTHERN MISSISSIPPI

CITY           SKY/WX    TMP DP  RH WIND       PRES   REMARKS
MCCOMB         SUNNY     53  29  39 CALM      30.24F
GULFPORT       SUNNY     59  29  31 NE7       30.22F
BILOXI         SUNNY     55  32  41 NE3       30.23F
PASCAGOULA     SUNNY     58  31  35 E3        30.23F
STENNIS ARPT*  SUNNY     57  27  30 SE6       30.23F

$$

COASTAL OBSERVATIONS
LAKE AND NEARSHORE STATIONS

STATION/POSITION TIME  TEMP    WIND        PRES    WAVE
                       AIR SEA DIR/SP/G            HT/PER
                 (UTC) (F)     (DEG/KT/KT) (MB)    (FT/S)
PASCAGOULA       1600   55      70/  7/ 10 1023.2
WAVELAND YACHT   1600   51 62  150/  9/ 12 1023.1
GRAND ISLE       1600   59 66   80/  7/ 13 1023.5
SOUTHWEST PASS   1600   65 58   60/ 14/ 16 1022.8
NEW CANAL        1600   57 62   50/  1/  5 1024.3
SHELL BEACH      1600   54 59   80/ 11/ 16 1023.4

OFFSHORE STATIONS

STATION/POSITION TIME  TEMP    WIND        PRES    WAVE
                       AIR SEA DIR/SP/G            HT/PER
                 (UTC) (F)     (DEG/KT/KT) (MB)    (FT/S)
64 S DAUPHIN ISL 1700   56      60/ 12     1022.7

$$




USA.gov is the U.S. government's official web portal to all federal, state and local government web resources and services.